{"data":{"norad_id":52138,"epoch":"2026-09-20T00:00:51.274944Z","epoch_age_seconds":99224,"freshness":"FRESH","line1":"1 52138U 22029BC  26263.00059346  .00011877  00000+0  37169-3 0  9992","line2":"2 52138  53.1591 271.8828 0001947  34.5639 325.5490 15.33566075250334","mean_motion":15.33566075,"eccentricity":0.0001947,"inclination_deg":53.1591,"raan_deg":271.8828,"arg_perigee_deg":34.5639,"mean_anomaly_deg":325.549,"bstar":0.00037169,"rev_number":25033,"period_min":93.898790764526,"perigee_km":463.85056976521,"apogee_km":466.51535855926,"semimajor_km":6843.3199641622,"source":"CELESTRAK","updated_at":"2026-09-20T09:00:39.992735Z"}}